EHI
0 0 0 0 0 0 0 0 0 0 0 0 0 0 0 0 0 0 0 0 0 0 0 0 0 0 0 0 0 0 0 0 0 0 0 0 0 0 0 0 0 0 0
0 0 0 0 0 0 0 0 0 0 0 0 0 0 0 0 0 0 0 0 0 0 0 0 0 0 0 0 0 0 0 0 0 0 0 0 0 0 0 0 0 0 0
0 0 0 0 0 0 0 0 0 0 0 0 0 0 0 0 0 0 0 0 0 0 0 0 0 0 0 0 0 0 0 0 0 0 0 0 0 0 0 0 0 0 0
0 0 0 0 0 0 0 0 0 0 0 0 0 0 0 0 0 0 0 0 0 0 0 0 0 0 0 0 0 0 0 0 0 0 0 0 0 0 0 0 0 0 0
0 0 0 0 0 0 0 0 0 0 0 0 0 0 0 0 0 0 0 0 0 0 0 0 0 0 0 0 0 0 0 0 0 0 0 0 0 0 0 0 0 0 0
0 0 0 0 0 0 0 0 0 0 0 0 0 0 0 0 0 0 0 0 0 0 0 0 0 0 0 0 0 0 0 0 0 0 0 0 0 0 0 0 0 0 0
0 0 0 0 0 0 0 0 0 0 0 0 0 0 0 0 0 0 0 0 0 0 0 0 0 0 0 0 0 0 0 0 0 0 0 0 0 0 0 0 0 0 0
0 0 0 0 0 0 0 0 0 0 0 0 0 0 0 0 0 0 0 0 0 0 0 0 0 0 0 0 0 0 0 0 0 0 0 0 0 0 0 0 0 0 0
0 0 0 0 0 0 0 0 0 0 0 0 0 0 0 0 0 0 0 0 0 0 0 0 0 0 0 0 0 0 0 0 0 0 0 0 0 0 0 0 0 0 0
0 0 0 0 0 0 0 0 0 0 0 0 0 0 0 0 0 0 0 0 0 0 0 0 0 0 0 0 0 0 0 0 0 0 0 0 0 0 0 0 0 0 0
0 0 0 0 0 0 0 0 0 0 0 0 0 0 0 0 0 0 0 0 0 0 0 0 0 0 0 0 0 0 0 0 0 0 0 0 0 0 0 0 0 0 0
0 0 0 0 0 0 0 0 0 0 0 0 0 0 0 0 0 0 0 0 0 0 0 0 0 0 0 0 0 0 0 0 0 0 0 0 0 0 0 0 0 0 0
0 0 0 0 0 0 0 0 0 0 0 0 0 0 0 0 0 0 0 0 0 0 0 0 0 0 0 0 0 0 0 0 0 0 0 0 0 0 0 0 0 0 0
0 0 0 0 0 0 0 0 0 0 0 0 0 0 0 0 0 0 0 0 0 0 0 0 0 0 0 0 0 0 0 0 0 0 0 0 0 0 0 0 0 0 0
0 0 0 0 0 0 0 0 0 0 0 0 0 0 0 0 0 0 0 0 0 0 0 0 0 0 0 0 0 0 0 0 0 0 0 0 0 0 0 0 0 0 0
0 0 0 0 0 0 0 0 0 0 0 0 0 0 0 0 0 0 0 0 0 0 0 0 0 0 0 0 0 0 0 0 0 0 0 0 0 0 0 0 0 0 0
0 0 0 0 0 0 0 0 0 0 0 0 0 0 0 0 0 0 0 0 0 0 0 0 0 0 0 0 0 0 0 0 0 0 0 0 0 0 0 0 0 0 0
0 0 0 0 0 0 0 0 0 0 0 0 0 0 0 0 0 0 0 0 0 0 0 0 0 0 0 0 0 0 0 0 0 0 0 0 0 0 0 0 0 0 0
0 0 0 0 0 0 0 0 0 0 0 0 0 0 0 0 0 0 0 0 0 0 0 0 0 0 0 0 0 0 0 0 0 0 0 0 0 0 0 0 0 0 0
0 0 0 0 0 0 0 0 0 0 0 0 0 0 0 0 0 0 0 0 0 0 0 0 0 0 0 0 0 0 0 0 0 0 0 0 0 0 0 0 0 0 0
0 0 0 0 0 0 0 0 0 0 0 0 0 0 0 0 0 0 0 0 0 0 0 0 0 0 0 0 0 0 0 0 0 0 0 0 0 0 0 0 0 0 0
0 0 0 0 0 0 0 0 0 0 0 0 0 0 0 0 0 0 0 0 0 0 0 0 0 0 0 0 0 0 0 0 0 0 0 0 0 0 0 0 0 0 0
0 0 0 0 0 0 0 0 0 0 0 0 0 0 0 0 0 0 0 0 0 0 0 0 0 0 0 0 0 0 0 0 0 0 0 0 0 0 0 0 0 0 0
0 0 0 0 0 0 0 0 0 0 0 0 0 0 0 0 0 0 0 0 0 0 0 0 0 0 0 0 0 0 0 0 0 0 0 0 0 0 0 0 0 0 0
0 0 0 0 0 0 0 0 0 0 0 0 0 0 0 0 0 0 0 0 0 0 0 0 0 0 0 0 0 0 0 0 0 0 0 0 0 0 0 0 0 0 0
0 0 0 0 0 0 0 0 0 0 0 0 0 0 0 0 0 0 0 0 0 0 0 0 0 0 0 0 0 0 0 0 0 0 0 0 0 0 0 0 0 0 0
Wind_Speed
1 1 1 1 1 1 1 1 1 1 2 2 2 2 1 1 1 1 1 1 1 1 3 4 5 5 5 5 6 7 7 7 6 6 7 7 7 7 7 7 7 7 7
1 1 1 1 1 1 1 1 1 1 1 1 2 2 1 0 0 1 1 1 2 2 2 2 4 5 5 5 6 7 7 6 6 6 6 7 7 7 7 7 6 6 7
1 1 0 1 1 1 1 1 1 1 1 1 1 1 1 1 1 1 1 1 1 2 2 3 3 4 5 5 6 7 7 7 7 6 6 6 6 7 7 7 6 6 6
1 1 0 1 1 1 0 0 0 1 1 1 1 1 1 1 1 1 1 1 1 1 2 2 3 3 4 5 6 6 7 7 7 7 6 7 7 7 7 7 7 6 6
1 1 0 1 1 1 0 0 0 0 0 1 1 1 1 1 1 1 1 1 1 1 1 2 3 3 3 4 5 6 7 8 8 8 7 7 8 8 8 8 8 7 7
1 1 0 1 1 1 1 1 1 1 0 0 1 2 2 1 1 1 1 0 1 1 1 1 1 2 2 3 4 5 6 7 9 9 8 8 8 8 8 8 8 8 8
1 1 1 0 1 0 1 1 1 0 1 1 1 2 2 1 1 1 1 0 1 1 1 1 1 1 1 3 3 4 5 7 7 9 9 8 9 9 9 9 9 9 9
1 1 1 1 0 0 1 1 0 0 1 0 1 0 1 2 2 2 1 0 1 1 1 1 1 1 2 1 2 3 3 5 6 8 9 9 9 9 10 9 9 9 9
1 1 1 1 1 0 1 1 1 1 1 1 1 1 1 2 2 2 1 1 0 1 1 1 1 1 2 1 2 2 3 4 5 7 8 9 9 9 10 10 10 10 10
2 1 1 1 1 1 1 2 1 1 2 2 2 1 1 1 1 1 2 1 1 1 1 2 2 1 1 1 2 3 3 4 5 6 8 9 9 10 10 10 10 10 9
2 2 1 1 1 1 2 2 2 1 2 2 2 1 1 1 1 2 2 2 2 2 2 2 2 2 1 1 2 3 3 4 5 6 7 8 9 10 11 11 11 11 10
2 2 2 2 2 2 2 2 2 2 2 2 2 2 2 2 2 2 2 3 3 2 2 2 3 2 2 2 3 4 4 4 5 6 7 7 7 8 8 10 11 11 10
3 3 3 2 2 2 3 2 2 3 3 3 3 3 2 3 2 2 2 2 3 2 2 2 3 2 2 1 2 4 3 4 5 5 6 6 5 5 5 7 8 8 9
4 4 3 3 3 3 3 3 2 3 2 3 4 4 3 3 2 3 3 2 2 2 2 3 2 3 2 2 3 4 2 4 5 5 6 5 4 4 5 4 5 6 7
4 4 4 3 3 3 3 3 3 3 3 3 4 4 3 3 3 3 2 3 3 3 4 3 2 2 2 2 4 3 3 4 6 5 5 5 4 4 4 4 4 4 5
5 4 4 3 3 3 3 3 3 3 3 3 3 4 4 3 3 3 2 2 3 3 4 3 3 2 2 3 5 4 4 6 6 6 6 5 5 5 5 5 4 5 5
5 4 4 4 4 4 4 4 4 4 4 4 4 4 5 4 3 3 3 3 2 3 5 4 3 2 3 3 3 3 4 4 4 6 6 6 6 7 6 6 6 5 5
5 5 5 5 5 5 4 5 5 4 5 5 5 4 5 4 4 4 3 4 3 3 4 5 3 3 4 4 4 4 4 4 3 6 7 7 8 8 7 7 7 6 6
5 5 5 5 5 5 5 6 5 5 6 6 5 5 5 5 5 4 4 4 4 3 3 4 5 3 3 3 3 4 4 3 4 5 6 8 8 9 9 8 8 7 7
6 5 6 6 6 6 6 6 6 6 6 6 6 6 6 6 6 6 5 6 4 4 4 4 4 4 3 3 3 3 3 3 3 3 5 6 7 8 9 10 9 8 7
6 6 6 6 6 6 6 6 6 6 6 6 6 6 6 7 8 7 6 6 5 5 4 4 5 4 4 3 4 4 4 3 4 3 4 4 4 4 5 7 9 9 9
6 6 7 7 7 6 7 8 7 6 6 7 7 6 7 8 9 10 10 10 8 7 7 6 5 6 7 5 5 4 4 4 5 3 3 4 3 4 4 4 7 9 9
6 6 7 7 7 8 9 9 9 7 7 7 7 6 6 6 8 7 8 10 10 11 12 9 9 9 8 7 6 7 6 6 6 3 3 5 3 5 5 5 8 9 10
6 6 7 7 7 7 9 9 9 7 7 7 7 7 7 7 7 7 7 8 8 9 10 9 10 10 9 8 8 8 7 6 5 3 3 5 4 5 5 4 8 9 10
6 6 6 6 7 7 9 9 9 5 6 7 7 7 8 8 10 11 8 8 8 8 10 12 13 12 12 12 9 5 5 5 6 5 3 4 4 4 4 4 5 8 9
6 6 6 6 6 7 9 9 9 5 6 6 6 7 9 9 10 11 8 8 9 8 6 6 7 8 8 9 10 9 7 6 5 5 4 4 3 2 3 3 3 3 5
Wind_Direction
55 33 18 30 14 7 18 6 355 11 17 16 24 32 18 26 357 338 321 308 282 212 178 175 174 174 171 166 161 157 152 148 144 143 142 137 137 138 135 129 124 120 119
88 52 8 32 8 350 347 346 329 359 357 5 14 10 347 334 315 315 314 306 300 278 233 201 193 189 187 181 176 172 171 164 161 153 157 151 149 148 145 142 138 133 129
101 96 24 348 320 338 349 357 356 21 13 4 351 336 333 312 270 265 276 280 290 295 277 245 227 206 198 193 190 186 181 178 176 173 170 167 163 159 158 156 153 150 144
56 82 107 297 306 333 343 323 34 22 355 348 331 311 314 305 264 252 257 263 280 287 291 282 271 239 216 204 201 196 192 188 185 184 180 177 174 173 175 173 168 165 161
32 38 200 261 301 338 346 304 8 5 295 326 316 318 307 296 267 259 258 267 294 316 307 317 314 290 239 216 212 209 206 202 197 193 191 187 186 187 189 187 181 178 176
12 12 23 322 321 12 347 335 331 331 246 284 333 340 317 298 299 268 237 270 347 350 354 338 329 306 285 251 229 219 214 211 207 202 201 201 198 198 198 197 194 191 189
0 3 4 330 344 329 292 306 326 313 320 42 47 351 333 326 331 346 350 50 8 7 26 19 360 351 309 287 265 239 225 220 215 209 206 208 207 205 204 205 203 201 198
334 344 350 289 294 333 329 325 328 255 278 62 114 51 333 328 337 337 317 82 21 20 10 353 344 6 348 322 301 287 260 238 231 221 212 211 211 207 210 212 212 208 206
316 308 315 298 277 196 236 285 251 207 228 245 199 171 174 233 295 303 310 304 1 353 337 331 323 334 338 319 299 303 301 275 254 236 222 217 217 216 216 218 217 215 212
305 305 297 300 268 250 247 264 286 261 219 234 251 260 236 196 205 265 289 278 283 283 288 310 303 301 317 319 302 309 318 306 273 247 235 228 225 223 222 219 218 217 214
290 280 285 276 272 260 250 255 273 252 241 241 236 255 262 259 236 220 256 266 266 244 246 250 259 258 269 287 287 302 316 307 290 267 250 240 234 231 230 222 222 222 221
285 268 271 259 257 261 254 247 243 239 244 253 251 234 224 217 220 223 234 248 255 252 258 246 239 232 238 254 288 314 319 313 293 277 265 253 248 238 239 229 226 225 226
281 260 262 253 255 257 261 258 252 249 242 247 248 243 244 246 241 244 243 250 262 268 250 245 231 224 247 237 278 294 301 310 309 285 272 268 263 253 247 240 228 226 227
261 252 246 247 254 256 267 258 259 257 253 242 256 248 247 258 256 246 240 232 253 262 241 244 235 220 229 230 268 277 275 300 302 301 292 285 286 276 253 254 244 234 230
271 257 247 248 257 256 257 258 256 257 256 250 251 249 246 250 253 258 247 221 220 244 260 240 233 223 223 225 249 250 247 280 289 291 294 291 287 294 267 250 258 240 234
267 259 251 249 252 256 256 251 254 257 259 260 258 250 249 250 247 251 239 241 233 234 257 252 248 250 247 262 263 258 249 269 272 274 276 279 276 277 271 255 258 251 239
259 252 248 244 246 250 250 249 250 255 256 264 266 259 251 249 245 247 237 233 239 233 255 273 269 247 238 246 258 254 246 240 247 259 263 267 268 265 267 260 250 255 252
257 251 249 241 245 249 247 248 248 250 248 252 256 260 259 252 249 246 235 236 241 239 243 265 270 253 246 240 246 253 254 253 243 253 255 257 258 259 261 264 252 245 251
254 252 249 241 244 249 250 251 244 244 245 248 247 249 255 246 245 247 240 235 241 252 245 248 263 260 254 244 253 263 252 249 255 256 252 254 256 256 253 257 255 246 244
247 250 248 243 243 249 250 251 251 247 247 251 250 248 249 246 242 241 242 233 235 241 245 244 255 257 254 239 235 249 260 243 254 260 261 258 257 257 254 253 252 248 244
248 250 251 247 244 244 243 248 252 246 246 251 253 250 251 255 256 249 250 234 225 229 233 240 246 257 248 231 235 239 248 258 259 241 251 252 249 250 246 248 249 245 242
247 247 249 245 244 248 259 263 262 247 245 247 252 254 254 252 257 262 261 253 240 230 228 232 244 242 244 240 243 233 236 247 264 229 233 257 237 251 249 239 248 244 240
249 248 246 241 244 250 261 264 264 253 244 244 246 251 259 258 260 253 259 255 249 246 238 233 237 238 240 235 239 238 233 238 252 235 225 260 244 252 252 251 250 252 247
247 248 249 241 244 253 261 264 267 252 246 246 244 243 248 252 249 253 252 245 242 242 240 237 235 239 239 232 228 238 238 252 262 239 220 252 250 253 260 251 250 251 251
253 249 246 241 242 253 258 262 265 243 250 251 251 248 247 247 255 260 254 248 251 251 252 249 248 249 249 247 241 235 230 231 250 242 212 234 249 263 264 256 250 250 253
253 253 253 246 244 250 258 259 259 243 253 256 256 254 254 258 260 258 250 243 246 250 248 250 251 253 246 239 235 224 221 228 242 247 211 210 226 236 272 257 247 245 246